Simultaneous Nadir Overpasses (SNOs) Predictions

Prediction of SNOs between GOES-15 and METOP-A Satellite Orbit:

Table of predicted SNOs for the next 14.0 days since TLE Epoch: 12/1/2018
Index Date Time (GOES-15) GOES-15 Lat,Lon METOP-A Lat,Lon Distance(km) Time Diff (sec)
1 12/02/2018 06:04:24 0.21,-128.48 -0.55,-131.96 395.86 80
2 12/03/2018 05:41:01 0.21,-128.49 0.53,-126.95 174.73 80
3 12/04/2018 17:59:50 -0.20,-128.54 0.45,-131.52 339.99 80
4 12/05/2018 17:41:47 -0.21,-128.56 -0.63,-126.52 231.41 80
5 12/07/2018 06:00:44 0.20,-128.57 -0.37,-131.12 291.45 80
6 12/08/2018 05:37:23 0.20,-128.57 0.77,-126.13 278.60 80
7 12/09/2018 17:56:10 -0.19,-128.60 0.26,-130.69 237.84 80
8 12/10/2018 17:38:08 -0.19,-128.62 -0.81,-125.69 333.02 80
9 12/12/2018 05:57:05 0.17,-128.63 -0.18,-130.29 189.59 80
10 12/13/2018 05:33:43 0.18,-128.63 0.90,-125.29 380.00 80
11 12/14/2018 17:52:31 -0.17,-128.64 0.08,-129.86 138.07 80




NCC Satellite Simultaneous Nadir Overpasses (SNOs) Prediction Service
